Location: Ceresola
(44.3333°N, 10.5333°E)
Time: 00:55:37
(UTC+00:00)

Daily predictions for brighter satellites

Satellite Brightness Start Highest point End
(mag) Time Altitude Azimuth Time Altitude Azimuth Time Altitude Azimuth
CENTAUR R/B 4.4 02:28:55 24° E 02:28:55 24° E 02:32:26 10° NE
Cosmos 2344 3.9 02:53:31 56° ENE 02:53:31 56° ENE 02:59:41 10° NE
USA 238 DEB 4.2 03:12:40 51° ESE 03:12:47 51° ESE 03:19:16 10° NE
USA 238 4.2 03:12:43 50° ESE 03:12:53 50° ESE 03:19:23 10° NE
BREEZE-M DEB (TANK) 4.3 03:15:56 39° E 03:15:56 39° E 03:22:09 10° ESE
Cosmos 2034 Rocket 4.4 03:24:10 58° SE 03:24:10 58° SE 03:29:26 10° SSE
USA 215 3.9 03:19:01 10° E 03:25:08 45° NNE 03:25:43 44° N
Cosmos 2369 Rocket 3.8 03:32:18 10° SSE 03:37:10 32° ESE 03:42:04 10° NE
NOSS 3-3 (A) 4.5 03:44:27 57° NW 03:46:24 89° NE 03:54:57 10° SE
NOSS 3-3 (C) 4.5 03:44:32 57° NW 03:46:29 88° NE 03:55:02 10° SE
COSMO-SKYMED 1 4.3 03:43:09 10° SE 03:46:56 30° ENE 03:48:36 23° NNE
Cosmos 1867 3.7 03:50:14 67° SSE 03:50:14 67° SSE 03:54:56 10° SSE
MOS 1-B Rocket 4.4 03:43:48 10° SSE 03:50:02 59° ENE 03:54:14 19° N
Tsikada Rocket 4.0 03:45:35 10° S 03:51:44 76° E 03:58:01 10° N
Cosmos 2208 Rocket 4.1 03:52:17 78° ENE 03:52:17 78° ENE 03:57:38 10° SSE
H-2A R/B 4.4 03:50:32 10° NNE 03:53:55 32° E 03:57:18 10° SSE
Gblst 52 Del rocket 4.3 03:54:35 71° NNW 03:54:35 71° NNW 04:01:11 10° ENE
Cosmos 1943 Rocket 2.1 04:06:39 67° NW 04:06:39 67° NW 04:12:00 10° NNE
CZ-2C R/B 3.2 04:02:39 10° SSE 04:08:01 57° ENE 04:13:18 10° N
SL-19 R/B 4.2 04:04:39 10° SSE 04:10:15 84° ENE 04:13:20 28° NNW
Cosmos 1241 Rocket 4.3 04:10:32 56° NW 04:11:56 78° WSW 04:18:07 10° SSE
SL-8 R/B 3.9 04:16:23 55° N 04:16:38 56° N 04:21:21 10° E
CENTAUR R/B 2.5 04:16:08 53° WNW 04:17:00 58° NW 04:24:02 10° NNE
Cosmos 2297 3.7 04:21:06 54° WNW 04:21:17 54° WNW 04:26:56 10° NNE
Iridium 2 4.0 04:22:23 10° S 04:26:07 66° E 04:29:55 10° N
NOSS 3-2 (A) 3.8 04:27:49 40° NW 04:28:11 40° NW 04:34:21 10° NNE
Cosmos 2278 Rocket 4.3 04:33:50 11° NNW 04:33:50 11° NNW 04:34:24 10° N
SKYMED 2 3.4 04:30:30 10° SSE 04:34:50 86° WSW 04:37:11 27° NNW
NOSS 3-2 (C) 3.4 04:33:35 39° WSW 04:35:31 57° NW 04:41:55 10° NNE
Envisat 2.9 04:31:06 10° NNE 04:36:13 83° WNW 04:41:17 10° SSW
Meteor 2-6 Rocket 4.4 04:31:38 10° N 04:37:03 68° ENE 04:42:24 10° SSE
Cosmos 2098 Rocket 2.8 04:37:20 10° S 04:41:05 87° W 04:45:53 10° N
Meteor 2-3 Rocket 4.0 04:36:27 10° SW 04:41:50 45° WNW 04:47:19 10° N
Landsat 5 3.6 04:39:58 10° SSE 04:44:28 88° WSW 04:48:26 13° NNW
Cosmos 968 Rocket 3.6 04:42:38 25° SW 04:45:20 48° WNW 04:50:19 10° N
Meteor 2-13 Rocket 4.4 04:40:08 10° SSW 04:46:12 64° WNW 04:52:15 10° N
CZ-4B R/B 4.0 04:44:15 10° N 04:48:42 75° WNW 04:53:10 10° SSW
Genesis I 3.7 04:49:24 41° WSW 04:49:46 42° WSW 04:53:35 10° S
Cosmos 921 Rocket 3.2 04:50:35 36° NW 04:51:58 50° WSW 04:56:17 10° S
Okean 3 Rocket 3.6 04:48:11 10° S 04:52:43 90° SE 04:57:18 10° N
ATLAS 5 CENTAUR R/B 4.2 04:51:59 10° SSE 04:54:44 19° ESE 04:57:39 10° ENE
H-2A R/B 3.5 04:51:18 10° SE 04:55:12 36° ENE 04:59:12 10° N
DNEPR-1 R/B 4.0 04:53:14 23° NNW 04:56:22 83° NE 05:02:07 10° SE
Cosmos 1833 4.4 04:51:16 12° NNW 04:56:32 75° ENE 05:02:15 10° SSE
Cosmos 1812 2.9 04:56:57 33° NW 04:58:15 48° W 05:01:57 10° SSW
CBERS 1 LM4 rocket 4.4 04:54:35 10° N 04:59:23 62° WNW 05:04:19 10° SSW
ADEOS 3.6 04:54:28 10° NNE 04:59:45 82° ESE 05:04:58 10° SSW
Cosmos 1354 Rocket 4.3 04:57:41 10° S 05:02:55 72° ESE 05:08:12 10° NNE
USA 238 DEB 4.1 05:00:11 22° W 05:03:53 40° NW 05:10:21 10° NNE
USA 238 4.1 05:00:14 22° W 05:03:59 40° NW 05:10:27 10° NNE
Cosmos 2142 Rocket 4.5 04:58:45 10° NNW 05:05:02 66° W 05:11:20 10° S
Cosmos 1151 Rocket 3.2 05:01:35 14° NNW 05:05:08 50° W 05:09:22 10° SSW
Cosmos 1766 Rocket 3.5 05:01:41 10° SSW 05:05:57 57° W 05:10:14 10° N
Cosmos 2263 4.1 05:01:25 10° SSW 05:07:05 70° WNW 05:12:50 10° NNE
Cosmos 2344 4.3 05:03:34 22° WNW 05:07:13 33° NNW 05:14:27 10° NNE
CZ-2C R/B 3.4 05:02:54 10° NNE 05:07:44 66° ESE 05:12:45 10° S
USA 215 3.3 05:01:23 10° SE 05:07:54 74° SW 05:13:03 18° NW
Meteor PRIRODA 3.7 05:09:24 10° NNE 05:13:02 76° ESE 05:16:39 10° S
Meteor 1-31 Rocket 3.3 05:10:56 10° N 05:14:32 36° WNW 05:18:08 10° SW
Cosmos 1782 4.4 05:15:55 17° WSW 05:15:55 17° WSW 05:17:34 10° SW
Cosmos 2279 Rocket 4.0 05:09:43 10° NNW 05:15:46 57° W 05:21:48 10° S
IRAS Rocket 4.2 05:11:02 10° SSE 05:16:34 83° WSW 05:22:05 10° NNW
Cosmos 2297 Rocket 4.5 05:12:50 10° N 05:16:34 18° NE 05:20:18 10° E
Cosmos 1328 Rocket 3.7 05:13:32 10° NNW 05:17:49 52° W 05:22:02 10° S
BREEZE-M DEB (TANK) 3.8 05:04:42 10° SW 05:18:04 70° SSE 05:21:41 10° ENE
Cosmos 2369 Rocket 2.5 05:15:49 10° SW 05:21:03 40° WNW 05:26:20 10° NNE
FALCON 9 DEB 4.4 05:21:07 21° NW 05:22:12 25° NNW 05:25:06 10° NE
Cosmos 1862 3.8 05:18:40 10° SW 05:22:18 36° WNW 05:25:59 10° N
COSMO-SKYMED 1 3.5 05:19:24 10° SSW 05:23:05 27° W 05:25:48 15° NW
SMAP 4.0 05:18:56 10° NNE 05:23:29 51° E 05:28:00 10° S
Nadezhda 4 Rocket 4.0 05:19:07 10° S 05:25:16 85° E 05:31:32 10° N
H-2A R/B 4.0 05:25:10 10° NNW 05:27:48 19° WNW 05:30:27 10° WSW
H-2A R/B 3.9 05:30:16 10° NNE 05:34:43 33° E 05:39:09 10° SSE
Meteor 2-15 Rocket 4.4 05:29:28 10° NNW 05:35:34 77° W 05:41:36 10° S
Cosmos 2228 Rocket 4.2 05:31:38 10° N 05:35:58 47° ENE 05:40:20 10° SSE
CZ-4B R/B 2.5 05:33:51 10° N 05:37:23 59° WNW 05:40:54 10° SSW
CZ-4B R/B 2.3 05:35:43 10° SSE 05:38:57 50° ENE 05:42:10 10° N
Cosmos 1408 Rocket 3.6 05:37:09 10° SSW 05:41:21 51° WNW 05:45:34 10° N
CZ-4C R/B 4.3 05:41:50 10° SW 05:44:06 18° W 05:46:01 12° NW
DMSP B5D2-2 4.3 05:39:18 10° S 05:44:21 51° W 05:49:26 10° NNW
Cosmos 1656 Rocket 4.1 05:39:49 10° WSW 05:44:46 35° NW 05:49:46 10° N
Cosmos 1503 Rocket 4.4 05:40:00 10° SW 05:45:00 43° WNW 05:50:05 10° N
USA 32 4.2 05:42:19 10° N 05:47:36 83° E 05:52:50 10° S
CZ-2C R/B 3.9 05:44:34 10° SW 05:48:37 21° W 05:52:40 10° NW
Cosmos 1743 Rocket 3.5 05:44:15 10° S 05:48:39 82° W 05:53:02 10° N
FAST Rocket 3.9 05:48:22 10° SSW 05:50:57 63° W 05:53:51 10° N
Cosmos 1943 Rocket 3.8 05:48:15 10° WNW 05:51:11 14° NW 05:54:08 10° N
AQUARIUS 4.3 05:47:00 10° NNE 05:51:31 85° ESE 05:56:00 10° SSW
Cosmos 2227 Rocket 4.2 05:47:44 10° N 05:52:05 22° NE 05:56:26 10° E
PSLV R/B 4.2 05:52:18 10° SSE 05:56:19 72° ENE 06:00:25 10° N
Cosmos 1777 Rocket 4.0 05:51:25 10° SSW 05:56:36 71° WNW 06:01:52 10° NNE
PSLV R/B 4.2 05:52:45 10° NNE 05:56:41 72° ESE 06:00:40 10° S
Cosmos 1515 Rocket 4.2 05:54:04 10° NNW 05:58:03 35° W 06:02:01 10° SSW
SL-8 R/B 3.9 05:54:32 10° WNW 05:59:18 66° SSW 06:04:02 10° SE
CORIOLIS 4.3 05:55:23 10° NNE 06:00:52 89° WNW 06:06:19 10° SSW
Cosmos 1602 3.7 05:57:17 10° S 06:01:05 88° E 06:04:55 10° N
Meteor 1-27 Rocket 3.9 05:55:45 10° NNW 06:01:12 53° W 06:06:46 10° S
NOAA 6 4.0 05:57:50 10° N 06:02:57 76° WNW 06:08:03 10° SSW
Cosmos 773 Rocket 4.4 06:00:52 10° NNW 06:05:50 45° WSW 06:10:43 10° S
SJ 16-02 1.4 06:01:52 10° SSW 06:06:10 57° WNW 06:10:30 10° NNE
